Address 0x2413bde73962b37e53f477b0a878bb711a4cddbc 3

 
Txn Hash Method
Block
From
To
Value [Txn Fee]
0x8404b368a8eb3acd358b7424cda98814e7c0df8ba431a92ef06a417f2b2b719aTransfer143967562021-05-12 8:50:24202 days 3 hrs ago0x2413bde73962b37e53f477b0a878bb711a4cddbcOUT 0xc2132d05d31c914a87c6611c10748aeb04b58e8f0 MATIC0.000038606
0x5dce5b6a56535fc382079e135a1985223f0b97febda743d5064cf5a5d8b25414Swap Exact Token...143967302021-05-12 8:48:44202 days 3 hrs ago0x2413bde73962b37e53f477b0a878bb711a4cddbcOUT QuickSwap: Router0 MATIC0.000099817
0x4b49421bca41fde2a0184e48b0e84cd69fd70c0ab81076006ea137c702cd5785Swap Exact ETH F...143967222021-05-12 8:48:28202 days 3 hrs ago0x2413bde73962b37e53f477b0a878bb711a4cddbcOUT QuickSwap: Router516.78642790442282 MATIC0.000242714
0xb8459103c6c207be46767c88137261a29692379f682a98b7d2f0a1a250e7b4c3Transfer143966692021-05-12 8:46:38202 days 3 hrs ago0x2413bde73962b37e53f477b0a878bb711a4cddbcOUT 0xc2132d05d31c914a87c6611c10748aeb04b58e8f0 MATIC0.000053594
0x8b6a4849e2ee52bbf8b92010033f4c7116773f441622af63fed6d908a6ed1ad0Swap Exact ETH F...143966102021-05-12 8:44:40202 days 3 hrs ago0x2413bde73962b37e53f477b0a878bb711a4cddbcOUT QuickSwap: Router10 MATIC0.000196519
0xa8bef7fd30fb328b706914b4699dfa16ab4329ad13876ee0cee8e7f0a1816976Swap Exact Token...139429772021-05-01 4:08:50213 days 8 hrs ago0x2413bde73962b37e53f477b0a878bb711a4cddbcOUT QuickSwap: Router0 MATIC0.000177495
0x321c7959777a35d89ab24c110a323e95c8ec72836331b67746a79c6ac178c524Approve139428952021-05-01 4:05:58213 days 8 hrs ago0x2413bde73962b37e53f477b0a878bb711a4cddbcOUT QuickSwap: QUICK Token0 MATIC0.000045771
0xb4aabcdbe505a1e07fccc706e3748294a1f1024524c1245d0819d812a90e5eefSwap Exact Token...139428702021-05-01 4:05:08213 days 8 hrs ago0x2413bde73962b37e53f477b0a878bb711a4cddbcOUT QuickSwap: Router0 MATIC0.000039303
0xe3a171832feb654e3282c73f6e5b58d9502a232689674d96a711649bdb5bafa9Withdraw139428072021-05-01 4:02:58213 days 8 hrs ago0x2413bde73962b37e53f477b0a878bb711a4cddbcOUT Polywhale Finance: Masterchef Staking Pool0 MATIC0.000120659
0x9c7413c828770938c18730861ab2c22fa41fb385a9412e8b8d581a5637ee8ef7Deposit139427992021-05-01 4:02:42213 days 8 hrs ago0x2413bde73962b37e53f477b0a878bb711a4cddbcOUT Polywhale Finance: Masterchef Staking Pool0 MATIC0.000122186
0xbb598813adcfad6b8052bd0b6c46bdf715cea53d03482a023cd0a404f2a3777aSwap Exact Token...139389672021-05-01 1:33:55213 days 11 hrs ago0x2413bde73962b37e53f477b0a878bb711a4cddbcOUT QuickSwap: Router0 MATIC0.00018401897
0x0be45af75b04bfc2e42da86fc1c451e6e96d84c556eba1fc2955df2a01ab7172Approve139389502021-05-01 1:33:21213 days 11 hrs ago0x2413bde73962b37e53f477b0a878bb711a4cddbcOUT Polywhale Finance: KRILL Token0 MATIC0.00004485006
0x9b1513b9d054e86c40d33f230d41f41579d470636b47b30ad26a045e35c8193aWithdraw139389282021-05-01 1:32:33213 days 11 hrs ago0x2413bde73962b37e53f477b0a878bb711a4cddbcOUT Polywhale Finance: Masterchef Staking Pool0 MATIC0.00009329572
0x96b8f1599968a5bc3442172245106d479031c83a65afe2576d59e56aa20bb099Withdraw139389022021-05-01 1:31:41213 days 11 hrs ago0x2413bde73962b37e53f477b0a878bb711a4cddbcOUT Polywhale Finance: Masterchef Staking Pool0 MATIC0.00012270894
0xa2fd075147378f484ddf3dc874f1ef0292fd197ba30b02ab4b0e60490b7a7bf5Deposit139388902021-05-01 1:31:17213 days 11 hrs ago0x2413bde73962b37e53f477b0a878bb711a4cddbcOUT Polywhale Finance: Masterchef Staking Pool0 MATIC0.00012340786
0xe54e1ba8a8fc5ed76b14da4920180298109b7ad4d5b93f1d0427f5721bf306ecDeposit139388892021-05-01 1:31:15213 days 11 hrs ago0x2413bde73962b37e53f477b0a878bb711a4cddbcOUT Polywhale Finance: Masterchef Staking Pool0 MATIC0.00012194538
0x34d8edce0bf1f1236ab160516211577a435e9e947edb3bc1d7534c74a09841b7Swap Exact Token...139368682021-05-01 0:19:27213 days 12 hrs ago0x2413bde73962b37e53f477b0a878bb711a4cddbcOUT QuickSwap: Router0 MATIC0.00011328
0x91d4b37295b1464e7000a042feb04f5ed1733cabea0d3a8e3c7f69fe36b7ffceDeposit139155352021-04-30 11:40:56214 days 1 hr ago0x2413bde73962b37e53f477b0a878bb711a4cddbcOUT Polywhale Finance: Masterchef Staking Pool0 MATIC0.000154166
0x86a1820181ce75e110c5b6e4c802d121a723f0a34c2ac85a445f06bdb9ecc9b9Approve139155202021-04-30 11:40:26214 days 1 hr ago0x2413bde73962b37e53f477b0a878bb711a4cddbcOUT QuickSwap: QUICK Token0 MATIC0.000045771
0x66908fd8fd04dce784db7cfbaa0ddc1b32f70ea2713edaa2fb4a5501054d9c45Deposit139155142021-04-30 11:40:10214 days 1 hr ago0x2413bde73962b37e53f477b0a878bb711a4cddbcOUT Polywhale Finance: Masterchef Staking Pool0 MATIC0.000147415
0x2b7ce90e40fca08e6b95e89809fafa514148b099357472e7fe97762b8f9a3ab2Approve139154052021-04-30 11:35:29214 days 1 hr ago0x2413bde73962b37e53f477b0a878bb711a4cddbcOUT Polywhale Finance: KRILL Token0 MATIC0.000044406
0xff4c3fcbf1c4396012ffd1ac4a4d3d1b61fcef48387645c6dc1a06923ef6705cSwap Tokens For ...139152172021-04-30 11:28:05214 days 1 hr ago0x2413bde73962b37e53f477b0a878bb711a4cddbcOUT QuickSwap: Router0 MATIC0.000250479
0xd208c358c08ac5f85b88c2ed13e1b11456b6778533569831462e77b684b4e1ccSwap Tokens For ...139152052021-04-30 11:27:41214 days 1 hr ago0x2413bde73962b37e53f477b0a878bb711a4cddbcOUT QuickSwap: Router0 MATIC0.000129967
0xd36fded6b25cb14a0fa3d18b523dac6b772c2dc673ba74bb94c4fc37dcbfcfc9Swap Tokens For ...139151912021-04-30 11:27:09214 days 1 hr ago0x2413bde73962b37e53f477b0a878bb711a4cddbcOUT QuickSwap: Router0 MATIC0.000261865
0x17dd06554e38a420dac757449d92437c48a5421ee07f703da17a5d858c8e3796Swap Tokens For ...139151722021-04-30 11:26:31214 days 1 hr ago0x2413bde73962b37e53f477b0a878bb711a4cddbcOUT QuickSwap: Router0 MATIC0.00003944
[ Download CSV Export 
Latest 3 internal transactions
Parent Txn Hash Block From To Value
0xbb598813adcfad6b8052bd0b6c46bdf715cea53d03482a023cd0a404f2a3777a139389672021-05-01 1:33:55213 days 11 hrs ago QuickSwap: Router0x2413bde73962b37e53f477b0a878bb711a4cddbc265.015041120905924425 MATIC
0x34d8edce0bf1f1236ab160516211577a435e9e947edb3bc1d7534c74a09841b7139368682021-05-01 0:19:27213 days 12 hrs ago QuickSwap: Router0x2413bde73962b37e53f477b0a878bb711a4cddbc257.78306393844689574 MATIC
0xd36fded6b25cb14a0fa3d18b523dac6b772c2dc673ba74bb94c4fc37dcbfcfc9139151912021-04-30 11:27:09214 days 1 hr ago QuickSwap: Router0x2413bde73962b37e53f477b0a878bb711a4cddbc4 MATIC
[ Download CSV Export 
Loading

Contract Name:
0 MATIC

Compiler Version
0

Optimization Enabled:
0 MATIC

Other Settings:
-NA-
Block Transaction Gas Used Reward
Age Block Fee Address BC Fee Address Voting Power Jailed Incoming
Block Uncle Number Difficulty Gas Used Reward
Loading
Loading
Make sure to use the "Vote Down" button for any spammy posts, and the "Vote Up" for interesting conversations.